Temperature
18 18 18 18 18 18 19 19 19 19 19 19 19 18 18 18 18 18 18 18 18 18 18 18 18 18 18 18 18 18 18 18 18 18 18 18 18 18 18 18 18 18 18
18 18 18 18 18 18 18 18 18 18 18 18 18 18 18 18 18 18 18 18 18 18 18 18 18 18 18 18 18 18 18 18 18 18 18 18 18 18 18 18 18 18 18
18 18 18 18 18 18 18 18 18 18 18 18 18 18 18 18 18 17 18 18 18 18 18 18 18 18 18 18 18 18 18 18 18 18 18 18 18 18 18 18 18 18 18
18 18 18 18 18 18 18 18 18 18 18 18 18 17 17 17 17 17 17 17 17 17 17 17 17 17 17 17 18 18 18 18 18 18 18 18 18 18 18 18 18 18 18
18 18 18 18 18 18 18 18 18 18 18 18 17 17 17 17 17 17 17 17 17 17 17 17 17 17 17 17 17 17 17 17 17 17 17 18 18 18 18 18 18 18 18
18 18 18 18 18 18 18 18 18 17 17 17 17 17 17 17 17 17 17 17 17 17 17 17 17 17 17 17 17 17 17 17 17 17 17 17 18 18 18 18 18 18 18
18 18 18 18 18 18 18 18 18 17 17 17 17 17 17 17 17 17 16 16 17 17 17 17 17 17 17 17 17 17 17 17 17 17 17 17 17 18 18 18 18 18 18
18 18 18 18 18 18 18 17 17 17 17 17 17 17 16 16 16 16 17 17 17 17 17 17 17 17 17 17 17 17 17 17 17 17 17 17 17 17 18 18 18 18 18
18 18 18 18 18 18 17 17 17 17 17 17 16 16 16 16 16 16 17 16 16 17 17 17 17 17 17 17 17 17 17 17 17 17 17 17 17 17 17 18 18 18 18
18 18 18 18 17 17 17 17 17 17 17 17 16 16 16 16 16 16 16 16 16 16 16 16 16 17 17 17 17 17 17 17 17 17 17 17 17 17 17 17 17 17 18
18 18 18 17 17 17 17 17 17 17 17 17 17 16 16 16 16 16 16 16 16 16 16 16 16 16 16 17 17 17 17 17 17 17 17 17 17 17 17 17 17 17 17
18 17 18 17 17 17 17 17 17 17 17 17 16 16 16 16 16 16 16 16 16 16 16 16 16 16 16 17 17 17 17 17 17 17 17 17 17 17 17 17 17 17 17
18 18 18 17 17 17 17 17 17 17 17 17 16 16 16 16 16 16 16 16 16 16 16 16 16 16 16 16 17 17 17 17 17 17 17 17 17 17 17 17 17 17 17
18 18 18 17 17 17 17 17 17 17 17 17 16 16 16 16 16 16 16 16 16 16 16 16 16 16 16 16 16 16 16 16 16 17 16 16 16 17 17 17 17 17 17
18 18 18 17 17 17 17 17 17 17 17 17 16 16 16 16 16 16 16 16 16 16 16 16 16 16 16 16 16 16 16 16 16 16 16 16 16 16 16 16 17 17 17
18 18 18 17 17 17 17 17 17 17 17 17 16 16 16 16 16 16 16 16 16 16 16 16 16 16 16 16 16 16 16 16 16 16 16 16 16 16 16 16 16 16 16
18 18 18 18 17 17 17 17 17 17 17 16 16 16 16 16 16 16 16 16 16 16 16 16 16 16 16 16 16 16 16 16 16 16 16 16 16 16 16 16 16 16 16
18 18 18 18 17 17 17 17 17 17 16 16 16 16 16 16 16 16 16 16 16 16 16 16 16 16 16 16 16 16 16 16 16 16 16 16 16 16 16 16 16 16 16
18 18 18 18 17 17 17 17 17 17 16 16 16 16 16 16 16 16 16 16 16 16 16 16 16 16 16 16 16 16 16 16 16 16 16 16 16 16 16 16 16 16 16
18 18 18 18 17 17 17 17 17 16 16 16 16 16 16 16 16 16 16 16 15 15 15 15 16 16 16 16 16 16 16 16 16 16 16 16 16 16 16 16 16 16 16
18 18 18 18 17 17 17 17 16 16 16 16 16 16 16 16 16 16 16 15 15 15 15 15 15 16 16 16 16 16 16 16 16 15 16 15 15 15 15 15 15 15 16
18 18 18 18 17 17 17 17 16 16 16 16 16 16 16 16 16 16 16 15 15 15 15 15 15 15 15 15 16 16 15 15 15 15 15 15 15 15 15 15 15 15 15
18 18 18 18 17 17 17 17 16 16 16 16 16 16 16 16 16 15 15 15 15 15 15 15 15 15 15 15 15 15 15 15 15 15 15 15 15 15 15 15 15 15 15
18 18 18 18 17 17 17 17 16 16 16 16 16 16 16 15 15 15 15 15 15 15 15 15 15 15 15 15 15 15 15 15 15 15 15 15 15 15 15 15 15 15 15
19 18 18 18 17 17 17 17 17 16 16 16 16 16 16 15 15 15 15 15 15 15 15 15 15 15 15 15 15 15 15 15 15 15 15 15 15 15 15 15 15 15 15
18 18 18 18 17 17 17 17 17 16 16 16 16 16 16 16 15 15 15 15 15 15 15 15 15 15 15 15 15 15 15 15 15 15 15 14 14 14 14 14 14 14 14
Wind_Speed
3 6 12 13 14 14 14 15 15 15 15 15 15 16 16 15 15 14 13 13 12 12 11 11 11 10 10 9 9 9 8 8 7 7 7 7 7 8 8 8 8 7 8
6 9 13 14 14 14 14 14 14 14 15 15 15 15 14 14 13 13 12 12 11 11 10 10 9 9 9 8 8 7 7 6 6 5 5 6 6 6 7 7 7 6 7
9 10 13 14 14 14 14 14 14 14 14 14 14 14 13 13 12 12 11 11 10 10 9 9 8 8 8 7 7 6 6 5 5 4 4 4 4 5 6 6 6 6 7
10 11 13 15 15 14 14 14 14 14 13 13 13 12 12 12 11 10 10 10 9 9 8 8 7 7 7 6 6 6 6 5 4 3 3 3 3 5 5 6 6 5 5
10 12 14 16 15 15 14 14 14 14 13 13 12 11 10 10 9 9 9 8 8 8 7 7 6 6 6 5 5 5 5 5 5 5 4 4 4 6 6 5 5 4 4
9 12 14 16 15 14 14 14 14 13 13 12 11 10 9 9 8 8 7 7 7 7 7 6 5 4 4 4 4 5 5 5 5 5 4 5 5 6 6 5 4 4 3
9 11 14 15 15 14 14 14 14 13 12 11 10 8 8 8 7 7 7 7 6 6 5 4 3 3 3 3 3 4 5 5 5 4 4 4 5 5 5 5 4 4 3
10 10 13 14 14 14 13 13 12 11 11 9 8 7 6 6 5 5 5 5 4 4 3 2 2 1 2 2 3 4 4 4 3 4 2 3 4 5 5 4 4 3 3
9 9 9 11 12 13 13 12 11 10 9 8 6 6 5 5 4 4 4 4 3 2 1 1 0 1 2 3 3 4 3 4 2 2 2 2 4 4 4 4 4 3 4
7 6 7 9 9 9 10 10 9 8 7 6 4 4 3 3 3 3 3 3 2 1 0 1 2 2 3 3 3 3 3 3 2 1 1 2 4 3 4 4 4 4 4
7 5 5 6 7 8 7 7 7 6 5 4 2 2 1 1 2 2 3 3 2 1 1 2 3 4 4 4 3 3 2 2 2 1 1 2 3 3 4 4 4 5 5
7 6 5 5 5 6 6 5 4 2 2 1 1 0 1 1 2 2 3 3 2 3 3 3 4 4 4 3 3 2 1 1 1 1 1 2 3 4 4 4 4 5 5
8 7 6 5 5 4 3 4 3 2 1 1 1 1 1 1 1 0 0 2 3 3 3 3 3 3 2 2 2 1 1 1 1 1 1 3 3 4 4 4 3 4 4
7 6 6 5 4 4 4 4 4 3 2 2 2 3 3 2 1 1 1 2 2 2 2 2 2 2 2 1 2 3 3 2 2 2 2 3 3 4 4 4 4 4 4
8 7 6 6 6 4 4 3 4 3 3 2 3 4 5 3 2 2 1 3 3 3 2 2 2 2 2 2 2 3 3 3 3 3 2 3 3 3 3 4 4 4 4
7 7 7 7 5 5 4 3 2 3 3 4 5 5 6 6 4 3 3 3 3 3 4 3 3 2 2 2 3 3 3 3 3 3 3 2 2 2 3 4 4 4 3
8 8 8 8 6 5 4 3 3 4 5 5 5 7 7 7 6 5 3 3 3 5 6 6 5 4 3 3 4 3 3 3 3 3 2 2 1 1 2 3 4 3 3
8 7 7 8 7 5 4 3 4 5 6 5 6 7 8 8 8 6 3 3 5 6 5 3 3 4 4 3 3 3 3 3 2 2 2 1 1 1 1 1 2 3 2
9 8 7 7 7 5 4 4 4 5 5 5 7 7 7 8 8 7 4 3 6 5 3 3 4 3 3 3 2 3 3 3 2 3 2 1 1 1 1 1 1 2 1
8 8 8 6 6 6 4 4 4 4 4 4 5 6 7 8 8 7 4 5 6 4 4 4 4 4 2 2 3 4 4 3 3 3 2 3 3 2 3 3 2 2 2
8 8 7 7 6 5 4 4 4 2 2 2 3 6 7 7 8 7 4 4 4 4 3 3 3 4 4 3 4 4 5 5 5 4 3 3 3 4 4 3 2 1 2
9 8 8 8 6 6 4 3 3 3 2 1 2 5 7 7 6 6 5 3 3 4 5 5 4 3 3 3 3 3 4 5 5 5 4 4 4 4 4 4 3 3 3
9 9 9 8 7 6 5 4 4 4 3 3 3 3 4 6 7 6 5 4 4 3 3 3 4 4 3 4 3 3 3 0 2 4 5 5 4 3 3 4 4 4 3
10 9 9 8 7 6 7 6 6 4 3 1 1 1 2 5 6 7 6 5 4 3 3 3 3 3 3 3 3 3 2 3 2 2 4 4 4 4 4 4 5 5 4
10 10 9 8 7 6 7 7 7 4 3 1 1 2 3 3 5 6 6 5 4 3 3 4 4 4 3 3 2 2 3 3 3 3 1 4 4 4 4 3 4 5 6
9 9 9 8 6 6 6 7 7 6 5 4 3 2 2 2 2 4 5 5 4 3 3 3 4 5 4 4 3 3 2 2 1 2 1 1 2 3 3 4 4 5 6
Wind_Direction
123 125 120 116 114 111 110 110 107 103 100 98 94 92 91 90 89 87 86 86 86 85 84 83 82 81 81 83 81 82 82 83 86 89 90 91 92 91 88 90 88 86 92
135 126 121 117 115 114 111 110 107 104 102 99 95 93 91 89 88 86 85 85 84 83 83 82 82 80 79 79 78 77 75 75 79 83 86 89 95 98 93 94 94 94 93
129 126 124 121 118 116 114 113 110 107 103 100 97 95 93 91 89 86 85 86 84 83 83 81 81 81 78 74 71 67 63 66 70 73 78 88 104 108 103 99 98 95 93
130 129 128 124 119 117 116 116 115 110 106 103 98 96 94 92 89 88 88 87 85 84 83 80 78 76 75 70 64 58 51 50 48 61 75 103 112 117 112 105 100 95 92
126 126 128 124 120 119 118 117 116 114 110 106 101 99 97 94 91 90 92 91 89 88 88 83 76 70 65 60 55 49 40 38 49 58 73 100 109 120 113 104 97 93 90
122 124 127 125 122 122 120 118 118 115 114 111 107 105 103 100 98 97 98 97 94 92 91 87 81 70 60 48 42 38 34 42 53 68 96 113 117 116 110 109 104 94 90
125 127 129 129 127 125 123 120 120 121 119 115 112 110 107 103 102 102 100 98 97 97 97 92 82 63 50 36 27 25 34 47 64 72 97 118 127 119 114 110 106 94 88
131 133 133 133 131 129 126 124 124 124 123 120 119 116 112 111 109 112 115 114 111 105 100 95 79 33 10 3 8 16 34 51 65 71 73 125 133 124 120 114 103 101 94
128 127 132 136 135 134 134 133 131 131 131 129 129 128 126 129 130 134 138 141 135 126 114 96 21 330 333 338 350 4 23 45 62 81 90 142 141 122 118 116 109 106 102
128 129 132 135 139 140 140 141 142 142 139 137 140 144 145 145 153 160 171 177 158 137 96 308 309 309 316 324 335 352 13 44 47 67 89 149 146 129 119 118 114 113 108
137 141 139 140 149 152 153 154 153 147 144 140 141 152 141 177 199 201 210 219 217 247 291 306 306 312 322 328 337 349 9 52 64 64 140 144 132 127 122 117 122 121 115
153 160 159 156 160 164 163 152 153 147 145 124 102 151 144 185 223 231 234 243 277 287 302 317 321 325 344 344 342 355 27 71 97 131 152 130 122 116 118 121 124 125 123
159 160 161 162 166 166 150 137 132 132 112 85 98 153 132 88 51 26 326 348 347 342 340 344 3 2 6 5 360 19 83 116 121 152 162 136 122 110 112 122 132 133 126
149 158 155 146 141 141 128 125 128 128 97 67 62 87 99 87 64 63 18 352 3 14 12 20 33 28 33 36 70 91 103 123 135 135 153 142 133 121 114 112 112 131 127
145 145 142 132 129 122 109 106 109 104 89 74 58 72 99 99 80 68 32 42 37 51 57 49 54 46 36 38 58 90 107 126 128 133 134 133 134 130 116 112 110 111 114
142 137 131 125 121 113 105 100 96 96 89 71 65 65 81 88 82 71 56 49 41 49 62 66 63 58 38 40 42 67 102 119 114 131 132 119 118 118 126 129 118 113 107
142 137 131 128 118 112 108 101 94 91 83 72 65 68 75 82 82 78 63 47 38 54 63 59 51 51 48 43 38 35 62 87 99 112 134 114 95 103 136 146 132 123 109
141 135 131 130 121 115 110 98 90 88 80 68 68 69 70 77 85 78 64 48 50 60 60 62 48 48 40 38 32 25 34 52 71 101 109 99 95 81 93 151 154 137 126
145 136 129 123 123 123 115 99 90 84 72 63 68 66 65 69 77 78 65 53 61 58 45 55 49 52 45 32 38 38 30 35 35 65 68 64 83 88 79 75 118 113 112
141 139 138 132 127 117 100 85 71 61 49 53 65 68 70 72 77 77 66 53 60 59 45 47 51 39 46 40 53 44 26 22 32 45 48 51 55 66 77 81 73 52 54
141 143 143 135 130 122 111 105 99 86 60 45 52 66 70 72 74 77 71 57 56 63 54 51 56 43 29 36 58 31 13 21 31 25 22 35 37 47 74 77 68 34 12
156 152 143 142 142 137 133 132 132 128 102 85 48 51 62 70 70 77 78 72 65 66 54 49 59 56 27 32 84 72 25 6 7 12 12 27 21 33 45 52 54 35 18
162 162 156 154 147 140 130 111 93 69 49 42 42 31 34 66 71 73 79 77 68 75 71 60 67 77 52 20 53 116 111 111 339 352 10 21 17 23 20 29 34 35 36
173 164 156 155 148 144 135 130 131 132 136 168 142 63 36 59 70 70 74 74 69 66 66 59 70 78 86 47 20 43 112 149 124 12 350 357 9 22 12 22 25 32 36
166 159 156 151 147 145 142 145 141 139 149 140 99 80 53 40 58 67 74 75 69 64 63 58 62 65 76 82 57 49 59 58 75 115 28 344 360 2 6 13 25 25 25
159 152 151 148 148 147 142 144 147 147 141 130 121 109 76 43 36 51 70 74 72 68 67 65 69 70 70 73 62 59 77 85 82 102 117 355 355 339 0 17 20 19 22
Height
1530 1531 1532 1532 1533 1533 1534 1534 1535 1535 1536 1536 1537 1537 1538 1538 1538 1539 1539 1539 1540 1540 1540 1540 1541 1541 1541 1542 1542 1542 1542 1542 1542 1542 1543 1543 1543 1543 1543 1543 1544 1543 1543
1530 1531 1532 1533 1533 1534 1534 1535 1535 1536 1536 1537 1537 1538 1538 1539 1539 1539 1539 1540 1540 1540 1541 1541 1541 1541 1542 1542 1542 1542 1543 1543 1543 1543 1543 1543 1544 1544 1544 1544 1544 1544 1544
1530 1531 1533 1533 1534 1534 1535 1535 1536 1536 1537 1537 1538 1538 1539 1539 1539 1540 1540 1540 1540 1541 1541 1541 1541 1542 1542 1542 1543 1543 1543 1543 1544 1544 1544 1544 1544 1544 1544 1544 1544 1544 1544
1531 1532 1533 1534 1535 1535 1536 1536 1537 1537 1537 1538 1538 1539 1539 1539 1540 1540 1540 1540 1541 1541 1541 1541 1542 1542 1542 1543 1543 1543 1543 1544 1544 1544 1544 1545 1545 1545 1545 1545 1545 1544 1544
1532 1533 1534 1535 1536 1536 1536 1537 1537 1537 1538 1539 1539 1539 1540 1540 1540 1540 1541 1541 1541 1541 1541 1542 1542 1542 1542 1543 1543 1543 1544 1544 1545 1545 1545 1545 1545 1545 1545 1545 1545 1545 1544
1533 1535 1536 1536 1537 1537 1537 1538 1538 1539 1539 1540 1540 1540 1540 1541 1541 1541 1541 1541 1541 1541 1542 1542 1542 1542 1543 1543 1543 1544 1544 1544 1545 1545 1545 1546 1546 1546 1545 1545 1545 1545 1544
1534 1535 1537 1537 1538 1539 1539 1539 1540 1540 1541 1541 1541 1541 1541 1542 1542 1542 1542 1542 1542 1542 1542 1542 1542 1543 1543 1543 1544 1544 1544 1545 1545 1545 1546 1546 1546 1546 1546 1545 1545 1545 1544
1535 1536 1538 1539 1540 1540 1540 1541 1541 1542 1542 1542 1542 1542 1543 1543 1543 1543 1542 1542 1542 1543 1543 1543 1543 1543 1543 1544 1544 1544 1545 1545 1546 1546 1546 1546 1546 1546 1546 1545 1545 1545 1544
1537 1538 1539 1540 1541 1542 1542 1543 1543 1543 1544 1544 1544 1544 1544 1544 1544 1544 1543 1543 1543 1543 1543 1543 1543 1544 1544 1544 1544 1545 1545 1545 1546 1546 1546 1546 1546 1546 1545 1545 1545 1545 1545
1539 1540 1541 1542 1543 1543 1544 1544 1545 1545 1545 1546 1546 1545 1545 1545 1545 1544 1544 1544 1544 1544 1544 1544 1544 1545 1545 1545 1545 1545 1545 1545 1546 1546 1546 1546 1546 1545 1545 1545 1544 1544 1545
1541 1542 1543 1543 1544 1545 1545 1546 1546 1547 1547 1547 1547 1547 1546 1546 1546 1545 1546 1545 1545 1545 1545 1545 1545 1545 1545 1545 1546 1546 1546 1546 1546 1546 1546 1546 1545 1545 1545 1544 1544 1544 1545
1541 1543 1544 1545 1545 1546 1547 1547 1548 1548 1548 1548 1548 1548 1547 1547 1547 1547 1546 1546 1546 1546 1546 1546 1546 1546 1546 1546 1546 1546 1546 1546 1546 1546 1546 1546 1545 1545 1545 1544 1544 1545 1545
1542 1543 1545 1546 1547 1547 1548 1549 1549 1549 1549 1549 1549 1549 1549 1548 1548 1548 1547 1547 1547 1547 1546 1546 1546 1546 1547 1547 1547 1547 1547 1547 1547 1547 1547 1546 1546 1545 1545 1545 1544 1545 1545
1543 1544 1546 1547 1548 1548 1549 1550 1550 1550 1550 1550 1550 1550 1549 1549 1549 1549 1548 1548 1548 1547 1547 1547 1547 1547 1547 1547 1547 1547 1547 1547 1547 1547 1547 1547 1546 1546 1545 1545 1544 1545 1545
1543 1545 1546 1547 1549 1550 1550 1551 1551 1551 1551 1551 1551 1551 1550 1550 1550 1549 1549 1548 1548 1548 1548 1548 1547 1547 1547 1547 1547 1547 1547 1547 1547 1547 1547 1547 1547 1546 1546 1546 1545 1545 1545
1544 1545 1547 1548 1550 1550 1551 1551 1552 1552 1552 1552 1552 1552 1551 1551 1550 1550 1550 1549 1549 1549 1548 1548 1548 1547 1547 1547 1547 1548 1548 1548 1548 1548 1548 1548 1547 1547 1547 1546 1546 1546 1546
1544 1546 1547 1549 1550 1551 1551 1552 1552 1553 1553 1553 1553 1553 1552 1552 1551 1551 1550 1550 1550 1549 1549 1548 1548 1548 1548 1548 1548 1548 1548 1548 1548 1548 1548 1548 1548 1548 1547 1547 1547 1546 1546
1544 1546 1548 1549 1550 1551 1552 1553 1553 1553 1554 1554 1554 1554 1553 1552 1552 1551 1551 1550 1550 1550 1549 1549 1548 1548 1548 1548 1548 1548 1549 1549 1549 1549 1549 1549 1549 1548 1548 1547 1547 1547 1547
1545 1547 1548 1549 1551 1552 1552 1553 1554 1554 1554 1554 1554 1554 1554 1553 1553 1552 1552 1551 1551 1550 1550 1549 1549 1549 1549 1549 1549 1549 1549 1549 1550 1550 1549 1549 1549 1549 1549 1548 1548 1548 1547
1545 1547 1548 1549 1551 1552 1553 1554 1554 1555 1555 1555 1555 1555 1555 1554 1553 1553 1552 1552 1551 1551 1550 1550 1550 1549 1549 1549 1549 1550 1550 1550 1551 1550 1550 1550 1550 1550 1549 1549 1549 1548 1548
1545 1547 1548 1549 1551 1552 1553 1554 1554 1555 1555 1556 1556 1556 1555 1555 1554 1553 1553 1552 1552 1551 1551 1551 1550 1550 1550 1550 1550 1551 1551 1551 1552 1552 1551 1551 1551 1550 1550 1550 1549 1549 1548
1544 1546 1548 1549 1551 1552 1553 1554 1555 1556 1556 1556 1557 1556 1556 1556 1555 1554 1554 1553 1553 1552 1552 1552 1551 1551 1551 1551 1551 1551 1552 1554 1553 1553 1553 1552 1552 1551 1551 1550 1550 1549 1549
1544 1545 1547 1549 1551 1552 1553 1554 1555 1556 1556 1557 1557 1557 1557 1556 1556 1555 1555 1554 1554 1553 1553 1553 1553 1552 1552 1552 1552 1553 1553 1553 1553 1554 1554 1553 1553 1552 1552 1551 1551 1550 1549
1542 1545 1547 1549 1550 1552 1553 1554 1555 1556 1556 1557 1558 1558 1558 1557 1557 1556 1556 1555 1555 1554 1554 1554 1554 1553 1553 1553 1553 1553 1554 1553 1554 1554 1555 1554 1554 1553 1553 1552 1551 1550 1550
1541 1543 1546 1548 1550 1552 1553 1554 1555 1556 1557 1557 1558 1558 1558 1558 1558 1557 1557 1557 1556 1556 1555 1555 1555 1554 1554 1554 1554 1554 1554 1554 1554 1554 1554 1555 1555 1554 1553 1553 1552 1551 1550
1540 1542 1545 1547 1549 1551 1553 1554 1555 1556 1557 1558 1558 1558 1558 1558 1558 1558 1558 1558 1557 1557 1556 1556 1556 1556 1555 1555 1555 1555 1555 1554 1554 1554 1554 1554 1554 1555 1554 1554 1552 1551 1550